Retour au catalogue

FENGYUN 1C DEB

ActifPO
NORAD 30389·DEBRIS·🇨🇳 China

Lancé May 10, 1999 depuis Taiyuan Satellite Launch Center

Loading…

Prochains Passages (prochaines 24 heures)

TLE

FraisSource: Space-Track

Époque: Sep 14, 2026, 17:19 UTC

1 30389U 99025ADC 26257.72164729  .00004403  00000-0  12027-2 0  9993
2 30389  98.8321 355.4070 0013506 121.2533  36.6808 14.47756912 17737

Suivez FENGYUN 1C DEB en temps réel avec AllMySat

Download on the App Store